Dewpoint
49 49 48 47 47 47 47 47 47 47 47 47 46 45 44 43 42 40 38 37 36 35 35 35 35 34 34 34 34 34 33 31 32 33 33 32 32 31 30 30 29 28 28 29 29 29 29 29 29 28 28 28 28 28 28 28 28 29 30 31 31 30 31 31 29 27 25 25 25 24 24 25 24 25 25 26 27 27 29 28 29 28 28 28 28
48 47 48 47 47 46 46 46 45 45 45 44 43 42 41 40 38 36 35 33 35 35 34 34 33 34 34 34 34 33 32 32 31 32 32 31 30 30 30 30 29 29 29 28 28 28 28 27 27 27 27 27 27 27 27 27 27 27 27 27 27 27 28 30 29 28 25 24 23 24 25 24 25 26 26 26 26 27 27 27 27 27 27 28 28
46 47 46 46 45 44 43 43 43 42 42 40 39 38 37 36 35 35 34 33 33 34 33 33 33 33 33 32 32 32 32 31 31 31 30 30 29 29 29 29 28 28 27 27 27 27 28 27 26 27 27 26 27 27 27 27 27 27 26 26 27 27 27 28 28 26 25 24 25 25 24 25 25 25 26 26 27 27 26 25 26 27 28 28 27
45 45 44 42 42 41 41 40 40 40 39 38 37 36 35 34 34 34 33 33 33 32 32 32 32 32 32 31 31 30 30 30 30 30 29 29 29 28 28 29 28 28 27 27 27 27 26 26 26 26 26 26 26 26 25 25 25 25 26 26 26 27 27 27 27 27 26 25 25 25 25 25 25 25 26 26 25 25 26 26 26 27 27 27 27
42 41 41 40 39 39 38 39 39 38 37 37 35 34 34 34 34 33 33 32 32 31 31 31 31 31 31 30 30 29 29 29 29 29 29 29 28 27 28 28 28 28 28 28 28 27 27 26 27 26 26 26 25 25 25 25 26 25 25 26 26 26 27 27 27 27 27 26 25 25 25 25 25 25 24 24 24 25 24 25 25 25 26 26 27
40 40 39 39 38 38 38 38 38 37 36 35 34 34 33 33 33 33 32 31 31 31 30 30 30 30 29 29 29 28 28 28 28 29 29 29 29 29 29 29 29 28 28 28 27 27 27 26 27 26 25 25 25 25 25 25 25 25 25 25 26 26 26 26 27 27 27 27 26 25 25 24 23 23 23 24 24 23 23 24 24 25 26 26 25
38 39 38 38 38 37 37 37 36 35 34 33 33 33 32 32 32 31 31 30 29 29 29 29 29 28 28 28 28 28 28 29 29 29 29 29 29 29 29 28 28 28 27 27 27 27 26 25 25 25 25 24 25 25 25 25 25 26 25 25 26 26 27 27 27 27 26 25 25 25 24 24 23 23 23 24 23 23 23 23 24 24 26 26 26
38 38 38 37 37 36 36 34 33 33 33 32 32 31 31 31 30 30 29 28 28 28 27 27 27 27 27 27 27 28 29 29 29 29 29 29 29 28 28 28 27 27 27 27 26 26 25 25 25 24 24 24 24 25 26 25 25 24 25 26 27 27 27 26 26 25 25 24 24 23 24 23 23 23 23 23 23 23 24 24 23 24 25 26 26
37 37 36 36 35 34 33 32 32 32 31 31 30 30 29 29 28 28 27 27 27 27 26 26 25 25 25 25 26 27 29 29 29 29 30 29 29 28 27 27 27 26 26 26 25 24 24 24 24 24 25 27 26 25 25 25 25 25 25 26 26 26 26 25 25 25 25 24 23 23 23 22 22 21 21 21 22 22 24 25 24 25 25 26 26
36 35 35 34 32 32 32 31 31 30 30 30 29 28 28 27 27 26 26 26 26 25 24 24 23 23 23 23 25 27 28 30 32 33 32 28 27 27 27 27 26 26 25 24 24 24 24 23 23 26 26 25 24 24 25 25 26 26 25 26 25 26 25 25 24 24 24 24 23 23 22 21 21 21 22 23 23 24 24 24 24 25 26 25 25
35 35 33 32 32 31 31 30 30 29 29 28 27 27 26 26 25 25 24 24 24 24 23 23 22 22 22 23 25 27 29 30 33 33 30 28 26 26 25 25 25 25 24 23 23 22 22 22 22 23 23 24 23 23 24 25 26 27 27 27 27 25 24 24 24 24 24 23 23 23 22 21 21 22 23 24 24 24 24 25 25 25 24 23 21
34 33 32 31 31 30 30 29 28 28 27 27 26 25 25 24 24 23 23 23 23 23 22 22 22 22 22 22 24 27 29 32 32 32 30 28 26 24 25 24 24 24 24 23 22 22 21 21 21 21 21 22 22 21 22 25 26 27 27 27 26 26 26 25 24 24 24 23 23 22 22 22 23 23 23 24 24 25 25 25 25 24 23 22 23
33 32 31 31 30 30 29 28 27 26 26 25 25 24 24 23 23 23 23 23 22 22 22 22 21 21 20 21 23 25 28 31 32 31 29 27 26 24 23 24 22 23 22 22 21 21 21 21 20 21 20 22 21 21 22 23 26 27 27 26 25 25 26 26 26 24 24 23 22 22 22 22 22 23 24 25 25 24 24 24 24 23 23 23 24
31 31 30 30 29 28 28 27 26 25 25 25 24 23 23 22 22 22 23 22 21 21 21 21 21 19 19 21 23 25 27 30 31 30 29 27 26 24 23 22 22 21 21 21 21 21 21 20 20 20 20 20 20 21 23 25 25 25 24 23 23 23 24 24 24 23 23 23 23 23 23 23 23 23 24 24 24 23 24 23 22 22 23 24 25
30 30 30 29 28 27 27 26 25 25 24 24 24 23 22 23 22 23 22 21 21 21 20 20 20 20 19 19 22 24 27 30 30 30 29 27 26 24 22 22 21 21 21 21 21 21 21 21 20 19 19 19 20 24 24 24 24 23 22 22 22 22 21 21 21 21 22 23 22 23 22 22 22 22 23 23 25 24 22 22 23 24 25 26 26
30 29 29 28 27 26 26 24 24 23 23 23 23 22 22 22 22 22 22 21 21 21 20 20 20 19 19 18 20 22 25 29 29 29 28 27 25 22 21 20 20 20 20 20 20 21 21 20 19 19 19 19 22 26 26 24 23 22 22 22 21 19 17 20 22 23 23 23 23 22 22 22 25 24 24 23 21 22 23 25 25 24 23 22 21
29 29 28 27 26 25 24 24 24 23 23 22 22 22 22 21 21 21 21 21 20 19 19 19 19 19 18 17 18 19 22 27 28 28 28 26 23 22 21 21 21 20 20 19 19 19 20 20 19 19 19 20 24 27 26 25 23 22 21 19 17 16 16 18 22 24 25 25 24 24 25 25 26 26 25 25 23 25 22 19 19 21 19 17 18
28 28 27 26 25 24 24 23 24 23 23 22 22 22 21 21 20 20 20 19 19 19 19 18 18 18 17 16 16 18 18 25 27 27 27 26 23 21 21 22 22 21 20 19 19 19 19 20 20 19 20 22 26 26 26 24 23 22 20 17 15 16 18 21 22 21 22 22 22 22 23 23 22 23 23 24 24 21 18 17 19 20 18 18 18
28 27 27 25 24 25 24 24 24 23 22 22 22 21 20 20 19 19 19 19 19 18 18 17 16 16 16 17 19 17 17 22 26 26 27 26 23 22 22 22 21 20 19 19 18 18 18 20 20 21 22 25 26 25 25 24 23 21 18 17 16 18 20 22 20 18 17 17 16 16 16 17 16 16 19 21 20 19 17 18 19 18 18 18 19
28 27 25 25 25 24 24 24 23 23 22 21 21 20 19 18 18 18 18 18 17 17 16 16 15 15 15 15 16 16 17 18 23 25 26 26 25 22 22 21 21 19 19 19 18 18 17 18 19 21 24 25 25 25 25 24 22 19 18 17 18 19 21 19 17 16 15 14 13 14 14 15 16 17 16 15 16 17 18 18 19 19 18 19 20
26 25 24 24 23 23 23 23 22 22 21 20 20 19 18 18 17 17 16 16 15 15 15 14 14 15 15 16 16 17 17 17 21 24 25 25 25 23 22 22 21 20 20 19 18 17 16 18 19 22 24 24 23 23 24 23 22 19 18 19 20 20 20 15 13 14 12 12 12 12 13 14 14 14 13 14 15 16 17 18 18 19 20 20 20
25 24 23 23 23 22 22 21 20 20 19 19 18 17 17 17 16 15 15 15 14 14 14 14 15 16 17 17 16 17 19 19 20 22 24 24 25 24 22 22 23 21 20 19 18 18 18 19 20 22 22 22 22 22 22 21 20 18 19 21 21 20 14 12 10 10 9 10 10 11 11 11 11 11 12 13 14 15 16 17 18 19 21 22 22
24 23 23 22 21 21 20 19 19 18 18 17 17 15 15 14 14 14 14 14 14 14 15 16 16 16 16 16 16 16 16 17 19 20 23 23 24 24 24 23 23 21 20 18 18 18 19 20 21 20 21 20 21 21 20 19 17 18 20 20 18 16 12 8 9 8 8 9 10 9 9 9 9 9 10 11 12 14 16 18 19 19 20 22 23
23 22 21 20 19 18 18 17 17 17 17 16 15 15 14 13 13 13 14 14 14 14 15 16 16 15 15 14 14 14 15 15 19 20 20 22 23 23 22 22 22 21 21 18 18 18 19 20 19 19 19 19 19 18 17 16 17 18 18 17 14 11 7 7 6 7 8 8 7 7 7 7 8 8 9 11 12 14 17 18 18 19 20 21 23
21 20 19 19 18 17 16 16 16 16 15 15 14 14 13 13 12 13 14 14 14 15 16 16 15 15 14 14 13 13 13 14 15 18 20 21 21 22 21 21 21 21 19 18 18 20 20 18 17 17 16 17 15 14 12 13 15 15 15 13 8 4 5 4 5 6 5 5 5 6 6 6 7 8 10 12 14 16 15 16 18 19 20 21 20
20 19 18 17 16 16 16 15 15 15 14 14 13 13 13 13 13 14 14 14 14 13 13 13 13 14 14 13 12 12 13 14 15 16 19 19 19 20 20 19 19 20 18 17 19 18 15 15 15 14 12 13 11 7 8 8 12 12 11 8 4 3 3 3 4 4 4 4 4 4 5 6 7 8 11 13 13 12 14 15 16 16 18 18 17
19 18 17 16 15 15 15 14 14 13 13 13 14 13 14 13 14 14 13 13 13 13 14 12 13 13 12 12 12 12 13 13 15 16 18 19 19 19 17 17 19 18 14 17 16 10 9 10 10 11 10 11 10 9 8 7 5 5 3 3 2 1 3 2 4 4 4 3 4 4 5 6 8 9 8 9 10 12 15 14 14 14 16 16 16
18 17 16 15 14 14 14 14 14 13 13 13 13 14 14 14 13 13 12 12 12 12 12 11 12 11 11 11 10 11 12 12 14 16 18 19 19 20 18 19 18 16 16 16 10 6 3 10 7 5 3 1 0 -0 -1 -1 1 2 0 -1 -1 1 5 6 6 4 4 4 4 5 5 6 5 5 6 7 9 11 11 12 13 13 14 15 14
17 15 15 14 14 14 13 14 13 13 13 13 13 14 14 14 13 14 13 14 13 12 11 11 11 11 10 10 10 10 11 12 15 20 19 21 19 19 18 18 17 16 17 16 6 1 1 -1 -0 -0 -1 -1 -1 -3 -3 -3 -1 -1 -2 -2 -2 -1 -1 -0 0 1 2 3 3 4 4 4 4 4 5 6 8 8 10 10 12 13 14 14 13
15 15 14 14 13 13 13 13 13 12 12 12 12 12 15 16 15 15 14 15 17 16 15 11 11 11 10 10 11 10 11 14 20 21 21 20 20 20 19 19 19 17 16 14 6 -8 -5 -5 -4 -3 -3 -4 -4 -3 -3 -3 -3 -2 -3 2 0 -2 0 0 0 1 2 3 3 4 3 3 3 3 4 5 5 6 9 11 11 13 13 13 12
15 15 14 13 13 13 12 12 12 12 12 11 12 12 15 17 17 17 18 19 19 19 18 17 17 14 11 9 14 17 19 21 22 21 20 20 20 19 18 18 18 17 14 3 -5 -6 -4 -4 -4 -5 -4 -6 -5 -5 -4 -4 -3 -4 -3 -3 -3 -1 0 -1 -0 1 2 2 3 3 3 3 3 3 4 5 5 6 7 9 11 12 12 12 11
15 14 14 13 13 12 11 11 11 11 11 11 12 12 14 15 17 19 20 20 20 20 19 19 18 18 17 15 16 17 19 21 21 20 19 19 19 18 17 18 17 15 14 12 -5 -5 -6 -6 -6 -6 -5 -6 -5 -4 -5 -6 -5 -5 -4 -3 -3 -2 -2 -2 1 0 1 2 3 3 2 2 3 3 4 4 5 5 6 8 10 11 12 11 10
15 14 14 13 12 11 10 10 10 10 10 11 12 13 13 13 14 16 19 22 21 21 21 21 20 19 19 19 19 19 19 20 21 19 19 19 17 16 17 17 16 14 12 -3 -10 -6 -6 -6 -6 -6 -6 -6 -7 -7 -7 -7 -6 -5 -5 -4 -4 -3 -1 -1 0 -0 1 3 3 2 2 2 3 3 4 4 4 5 6 8 10 11 11 10 9
14 14 13 12 11 10 10 9 9 9 10 11 12 13 13 13 13 15 15 17 17 18 20 21 21 21 20 19 18 19 20 20 20 19 18 18 16 15 15 11 15 14 7 -8 -9 -8 -8 -6 -5 -6 -7 -6 -7 -7 -7 -7 -6 -6 -5 -5 -4 -4 -2 -2 -2 -1 1 2 2 2 2 2 3 2 2 3 4 5 7 9 10 11 10 9 8
10 11 10 10 11 10 9 10 9 9 9 10 11 12 12 12 12 14 15 14 13 12 13 15 18 21 18 19 19 19 20 19 19 18 18 17 16 15 13 -2 -4 -7 -8 -7 -7 -9 -9 -6 -8 -7 -7 -8 -8 -7 -8 -8 -8 -6 -6 -5 -5 -4 -3 -3 -2 -0 1 1 1 1 2 2 2 2 3 3 4 4 7 9 10 10 9 9 8
10 10 10 10 10 9 9 8 8 8 8 9 11 11 11 10 11 12 12 12 11 10 9 10 10 18 18 17 18 19 19 19 18 17 17 16 15 13 -4 -8 -9 -10 -7 -9 -8 -7 -6 -8 -7 -8 -9 -9 -9 -10 -10 -9 -8 -7 -7 -6 -5 -5 -4 -3 -1 -0 0 0 0 1 2 1 2 2 2 3 4 6 7 9 10 9 9 8 7
9 9 9 9 9 9 8 7 7 7 10 8 8 8 8 9 8 9 9 10 9 8 7 6 4 4 11 9 12 17 18 18 17 16 16 15 13 4 -5 -6 -7 -12 -8 -9 -9 -8 -9 -10 -10 -10 -10 -10 -10 -11 -10 -10 -9 -9 -4 -5 -6 -6 -5 -2 0 0 -1 -1 -0 0 1 1 2 2 3 3 4 6 8 10 9 8 8 7 6
8 9 8 7 6 7 6 6 5 8 6 6 6 7 6 6 6 6 6 6 6 5 4 3 6 6 6 5 7 10 11 17 15 15 15 13 2 -5 -7 -8 -9 -10 -10 -11 -9 -10 -10 -12 -14 -13 -12 -12 -12 -12 -12 -11 -10 -10 -8 -7 -6 -5 -1 -1 -1 -2 -1 -1 -1 -0 1 1 2 2 4 4 5 7 9 9 8 7 6 6 3
5 7 8 8 8 6 6 5 4 5 5 5 5 6 5 5 4 4 4 4 4 3 2 2 3 4 4 3 4 6 8 6 5 2 -0 -2 -5 -6 -9 -10 -10 -10 -9 -8 -8 -7 -10 -12 -11 -11 -11 -12 -10 -12 -12 -11 -10 -10 -9 -8 -7 -6 -5 -4 -2 -2 -1 -1 -1 -1 -0 0 1 2 3 4 5 7 8 8 7 6 5 3 0
4 3 5 7 5 6 4 4 4 4 4 4 4 4 4 4 3 3 3 3 3 2 2 1 1 2 2 1 1 3 4 3 1 -0 -4 -5 -5 -8 -9 -9 -8 -7 -7 -9 -10 -12 -12 -13 -14 -13 -12 -13 -13 -13 -12 -11 -11 -9 -9 -8 -8 -7 -5 -4 -3 -2 -1 -1 -1 -1 -1 -0 1 3 3 4 5 7 7 7 6 5 4 2 -1
3 2 3 7 5 3 2 2 3 3 3 3 3 3 3 3 3 3 2 2 2 2 2 1 1 2 1 0 5 5 2 1 -1 -3 -4 -5 -6 -7 -8 -7 -7 -10 -10 -10 -10 -11 -12 -13 -14 -14 -14 -14 -13 -13 -12 -12 -10 -10 -10 -7 -8 -6 -6 -5 -4 -3 -1 -1 -1 -1 -1 -0 1 2 2 2 5 6 7 6 4 2 1 -2 -2
2 2 3 4 4 3 2 2 2 3 3 3 2 2 3 3 3 2 2 2 2 2 1 1 1 -0 1 4 6 7 3 0 -2 -3 -4 -4 -5 -6 -6 -8 -10 -10 -10 -10 -11 -11 -13 -13 -13 -14 -13 -13 -13 -13 -12 -12 -11 -11 -10 -9 -8 -7 -6 -5 -3 -2 -1 -1 -1 -1 -1 -0 0 1 1 4 3 5 6 5 3 1 -1 -3 -3
1 1 1 1 2 2 2 2 1 1 2 2 2 3 3 3 3 2 2 1 1 1 1 0 -0 -2 -0 6 6 7 5 2 -1 -2 -3 -5 -6 -7 -7 -7 -8 -9 -9 -10 -11 -13 -12 -13 -13 -14 -14 -12 -14 -13 -13 -11 -10 -8 -8 -8 -8 -7 -6 -4 -2 -1 -1 -1 -1 -1 -1 -1 -1 -0 0 2 3 5 5 4 2 -1 -2 -5 -4
-0 0 1 2 2 1 1 1 1 2 2 2 2 2 2 2 2 2 1 1 1 1 0 0 -0 -2 -2 3 5 4 4 1 0 -1 -3 -5 -6 -7 -7 -8 -9 -11 -12 -13 -14 -15 -15 -15 -14 -14 -16 -15 -15 -15 -13 -13 -12 -9 -8 -8 -7 -6 -5 -5 -3 -3 -1 0 -0 -1 -2 -1 -1 -1 -0 1 3 4 4 3 2 -0 -2 -5 -6
-2 -0 0 1 1 1 2 2 1 2 2 2 2 2 2 2 1 1 1 1 0 0 0 -0 -1 -1 -2 -1 1 2 2 1 -1 -2 -4 -5 -5 -6 -6 -9 -11 -11 -12 -13 -14 -15 -16 -14 -15 -16 -15 -15 -15 -14 -14 -14 -14 -13 -11 -9 -8 -7 -7 -6 -4 -2 0 1 0 -1 -1 -0 -1 -1 -1 -0 2 3 3 2 0 1 -2 -3 -5
-1 -0 0 1 1 2 2 2 2 2 2 2 2 2 1 1 1 1 1 0 0 0 0 -1 -1 -1 -2 -2 -2 -1 -1 -1 -3 -4 -5 -5 -6 -6 -8 -9 -11 -12 -12 -12 -13 -15 -15 -15 -15 -15 -14 -14 -15 -15 -15 -16 -14 -14 -15 -13 -10 -8 -6 -4 -3 -0 1 1 0 1 0 -1 -2 -2 -1 -1 1 2 3 2 -0 -2 -4 -3 -3
-3 -1 -0 0 1 1 1 2 1 1 1 1 1 1 1 1 1 0 0 -0 -0 -0 -0 -1 -1 -2 -2 -2 -3 -3 -3 -3 -4 -5 -6 -6 -6 -7 -8 -10 -11 -12 -12 -13 -14 -14 -14 -14 -14 -14 -14 -16 -16 -15 -15 -15 -17 -17 -15 -15 -14 -11 -9 -6 -4 -2 -1 -0 2 1 -0 -1 -2 -3 -3 -2 -0 1 2 2 -0 -2 -3 -2 -3
-3 -2 -1 -1 -1 -0 0 -0 1 1 1 0 0 0 0 0 -0 -1 -1 -1 -1 -1 -1 -1 -1 -2 -3 -3 -3 -4 -4 -4 -5 -6 -6 -7 -7 -9 -10 -11 -12 -12 -12 -12 -13 -14 -15 -15 -15 -15 -16 -16 -15 -15 -14 -15 -17 -17 -17 -17 -15 -14 -11 -7 -7 -4 -2 0 2 1 0 -1 -4 -5 -4 -3 -2 0 1 0 0 -2 -2 -2 -1
-4 -3 -3 -2 -1 -1 -0 0 0 0 0 0 -0 -0 -0 -0 -1 -1 -1 -1 -0 -1 -1 -2 -2 -3 -3 -4 -4 -5 -5 -6 -6 -6 -7 -8 -8 -9 -10 -11 -11 -12 -12 -12 -12 -13 -14 -16 -16 -16 -18 -18 -18 -17 -16 -16 -16 -17 -18 -18 -15 -10 -9 -7 -5 -3 -1 -0 1 1 -1 -6 -8 -7 -6 -5 -4 -2 -1 -1 -2 -1 -1 -1 -1
-4 -4 -3 -3 -2 -1 -1 -0 -0 0 0 0 -0 -0 -0 -1 -1 -1 -1 -1 -1 -1 -1 -2 -3 -3 -3 -4 -5 -5 -6 -7 -7 -7 -7 -8 -9 -9 -10 -11 -12 -12 -11 -11 -11 -12 -15 -19 -20 -21 -19 -20 -19 -19 -18 -16 -17 -17 -19 -17 -10 -9 -8 -5 -4 -3 -2 -1 -0 0 -4 -9 -11 -10 -10 -9 -7 -5 -3 -2 -1 -0 -1 -1 -1
-4 -4 -3 -3 -3 -2 -2 -2 -1 -1 -1 -0 -0 -1 -1 -1 -1 -2 -2 -2 -2 -2 -2 -2 -2 -2 -3 -4 -5 -5 -6 -7 -7 -7 -7 -8 -9 -9 -10 -10 -11 -11 -12 -12 -13 -14 -16 -19 -19 -17 -18 -17 -17 -17 -18 -17 -18 -18 -13 -10 -9 -8 -6 -4 -4 -3 -2 -2 -1 -1 -5 -8 -11 -11 -10 -9 -8 -7 -3 -1 -1 -2 -1 -1 -1